N716SC KMIA-KTNT

Flight info

Callsign N716SC
Flight time 0h 21m
Altitude VFR
Route
Aircraft C172/L-DOV/C

Departure

Time 2026-05-06 03:28
Airport Miami International Airport (KMIA)

Arrival

Time 2026-05-06 03:49
Airport Dade Collier Training and Transition Airport (KTNT)
Time Latitude Longitude Altitude Speed Heading
2026-05-06 03:20 25.79776 -80.27645 12 ft 0 kts 335°
2026-05-06 03:23 25.79832 -80.27660 12 ft 17 kts 357°
2026-05-06 03:23 25.79926 -80.27731 11 ft 20 kts 295°
2026-05-06 03:23 25.79973 -80.27844 10 ft 18 kts 272°
2026-05-06 03:24 25.80039 -80.27918 8 ft 17 kts 317°
2026-05-06 03:24 25.80047 -80.28060 7 ft 22 kts 268°
2026-05-06 03:24 25.80038 -80.28246 11 ft 26 kts 268°
2026-05-06 03:24 25.80031 -80.28451 11 ft 27 kts 267°
2026-05-06 03:25 25.80022 -80.28655 16 ft 24 kts 267°
2026-05-06 03:25 25.80019 -80.28726 18 ft 4 kts 267°
2026-05-06 03:25 25.80016 -80.28813 18 ft 19 kts 267°
2026-05-06 03:25 25.80008 -80.29003 16 ft 28 kts 267°
2026-05-06 03:26 25.79998 -80.29229 17 ft 30 kts 269°
2026-05-06 03:26 25.79989 -80.29468 10 ft 32 kts 268°
2026-05-06 03:26 25.79979 -80.29686 10 ft 17 kts 268°
2026-05-06 03:26 25.79997 -80.29752 10 ft 11 kts 337°
2026-05-06 03:27 25.80082 -80.29708 10 ft 23 kts 73°
2026-05-06 03:27 25.80104 -80.29362 15 ft 66 kts 84°
2026-05-06 03:27 25.80131 -80.28765 128 ft 82 kts 86°
2026-05-06 03:27 25.80147 -80.28120 313 ft 86 kts 89°
2026-05-06 03:28 25.80157 -80.27467 584 ft 82 kts 89°
2026-05-06 03:28 25.80182 -80.26821 794 ft 82 kts 76°
2026-05-06 03:28 25.80493 -80.26246 898 ft 95 kts 53°
2026-05-06 03:28 25.80947 -80.25654 915 ft 106 kts 51°
2026-05-06 03:29 25.81555 -80.25193 903 ft 112 kts 10°
2026-05-06 03:29 25.82301 -80.25305 887 ft 110 kts 334°
2026-05-06 03:29 25.82869 -80.25884 836 ft 107 kts 320°
2026-05-06 03:29 25.83314 -80.26529 827 ft 108 kts 302°
2026-05-06 03:30 25.83648 -80.27268 827 ft 106 kts 296°
2026-05-06 03:30 25.83822 -80.28017 883 ft 98 kts 273°
2026-05-06 03:30 25.83867 -80.28790 887 ft 101 kts 276°
2026-05-06 03:30 25.83904 -80.29569 896 ft 101 kts 274°
2026-05-06 03:31 25.83943 -80.30373 909 ft 109 kts 274°
2026-05-06 03:31 25.83994 -80.31228 912 ft 111 kts 275°
2026-05-06 03:31 25.84047 -80.32096 907 ft 113 kts 275°
2026-05-06 03:31 25.84095 -80.32976 908 ft 117 kts 274°
2026-05-06 03:32 25.84141 -80.33877 911 ft 119 kts 275°
2026-05-06 03:32 25.84190 -80.34798 908 ft 119 kts 275°
2026-05-06 03:32 25.84248 -80.35707 909 ft 117 kts 275°
2026-05-06 03:32 25.84301 -80.36602 915 ft 115 kts 275°
2026-05-06 03:33 25.84351 -80.37506 910 ft 120 kts 275°
2026-05-06 03:33 25.84403 -80.38440 920 ft 123 kts 275°
2026-05-06 03:33 25.84460 -80.39392 921 ft 124 kts 274°
2026-05-06 03:33 25.84522 -80.40343 937 ft 123 kts 275°
2026-05-06 03:34 25.84570 -80.41256 1008 ft 118 kts 275°
2026-05-06 03:34 25.84622 -80.42179 1007 ft 122 kts 274°
2026-05-06 03:34 25.84694 -80.43128 1013 ft 124 kts 275°
2026-05-06 03:34 25.84769 -80.44078 1017 ft 125 kts 276°
2026-05-06 03:35 25.84829 -80.45046 1016 ft 127 kts 274°
2026-05-06 03:35 25.84890 -80.46031 1022 ft 129 kts 274°
2026-05-06 03:35 25.84960 -80.47027 1020 ft 128 kts 275°
2026-05-06 03:35 25.85025 -80.48013 1020 ft 128 kts 275°
2026-05-06 03:36 25.85087 -80.49005 1018 ft 130 kts 275°
2026-05-06 03:36 25.85146 -80.50001 1016 ft 129 kts 275°
2026-05-06 03:36 25.85199 -80.50990 1015 ft 127 kts 274°
2026-05-06 03:36 25.85262 -80.51950 1006 ft 126 kts 275°
2026-05-06 03:37 25.85326 -80.52924 1013 ft 129 kts 276°
2026-05-06 03:37 25.85378 -80.53916 1012 ft 128 kts 275°
2026-05-06 03:37 25.85425 -80.54899 1008 ft 128 kts 274°
2026-05-06 03:37 25.85490 -80.55883 1011 ft 128 kts 275°
2026-05-06 03:38 25.85555 -80.56871 1013 ft 128 kts 276°
2026-05-06 03:38 25.85607 -80.57857 1008 ft 128 kts 275°
2026-05-06 03:38 25.85665 -80.58853 1015 ft 130 kts 275°
2026-05-06 03:38 25.85724 -80.59861 1015 ft 131 kts 274°
2026-05-06 03:39 25.85784 -80.60875 1010 ft 131 kts 275°
2026-05-06 03:39 25.85837 -80.61861 1016 ft 129 kts 276°
2026-05-06 03:39 25.85893 -80.62854 1016 ft 129 kts 274°
2026-05-06 03:39 25.85966 -80.63851 1010 ft 131 kts 275°
2026-05-06 03:40 25.86039 -80.64863 1008 ft 131 kts 276°
2026-05-06 03:40 25.86095 -80.65867 1009 ft 129 kts 275°
2026-05-06 03:40 25.86148 -80.66858 1005 ft 128 kts 274°
2026-05-06 03:40 25.86219 -80.67841 999 ft 128 kts 275°
2026-05-06 03:41 25.86310 -80.68823 1002 ft 127 kts 283°
2026-05-06 03:41 25.86516 -80.69782 1000 ft 128 kts 285°
2026-05-06 03:41 25.86707 -80.70728 995 ft 128 kts 280°
2026-05-06 03:41 25.86832 -80.71708 996 ft 129 kts 278°
2026-05-06 03:42 25.86968 -80.72700 994 ft 130 kts 279°
2026-05-06 03:42 25.87107 -80.73688 994 ft 129 kts 276°
2026-05-06 03:42 25.87193 -80.74682 1002 ft 130 kts 275°
2026-05-06 03:42 25.87261 -80.75693 1008 ft 133 kts 275°
2026-05-06 03:43 25.87337 -80.76718 1012 ft 133 kts 275°
2026-05-06 03:43 25.87425 -80.77721 1003 ft 131 kts 275°
2026-05-06 03:43 25.87511 -80.78725 999 ft 130 kts 275°
2026-05-06 03:43 25.87592 -80.79726 1006 ft 130 kts 274°
2026-05-06 03:44 25.87670 -80.80728 1002 ft 130 kts 275°
2026-05-06 03:44 25.87743 -80.81731 1002 ft 130 kts 274°
2026-05-06 03:44 25.87827 -80.82727 998 ft 129 kts 275°
2026-05-06 03:44 25.87904 -80.83712 997 ft 128 kts 275°
2026-05-06 03:45 25.87973 -80.84693 995 ft 127 kts 274°
2026-05-06 03:45 25.88058 -80.85676 999 ft 129 kts 275°
2026-05-06 03:45 25.88147 -80.86666 996 ft 129 kts 276°
2026-05-06 03:45 25.88185 -80.87648 987 ft 129 kts 269°
2026-05-06 03:46 25.88153 -80.88630 1022 ft 126 kts 265°
2026-05-06 03:46 25.88182 -80.89624 994 ft 131 kts 275°
2026-05-06 03:46 25.88284 -80.90613 1024 ft 129 kts 282°
2026-05-06 03:46 25.88472 -80.91614 995 ft 131 kts 284°
2026-05-06 03:47 25.88583 -80.92480 994 ft 104 kts 267°
2026-05-06 03:47 25.88425 -80.93198 891 ft 88 kts 240°
2026-05-06 03:47 25.88069 -80.93757 718 ft 99 kts 219°
2026-05-06 03:47 25.87497 -80.94135 689 ft 91 kts 182°
2026-05-06 03:48 25.87086 -80.93936 676 ft 66 kts 131°
2026-05-06 03:48 25.86702 -80.93518 621 ft 88 kts 128°
2026-05-06 03:48 25.86375 -80.92972 454 ft 79 kts 113°
2026-05-06 03:48 25.86245 -80.92457 350 ft 64 kts 103°
2026-05-06 03:49 25.86190 -80.91950 156 ft 70 kts 94°
2026-05-06 03:49 25.86180 -80.91404 56 ft 70 kts 90°
2026-05-06 03:49 25.86182 -80.90930 19 ft 49 kts 90°
2026-05-06 03:49 25.86181 -80.90637 18 ft 26 kts 89°
2026-05-06 03:50 25.86231 -80.90590 18 ft 9 kts 310°
2026-05-06 03:50 25.86242 -80.90603 18 ft 0 kts 319°